Skip Navigation Links
NOAA logo - Click to go to the NOAA homepage
NOAA's National Weather Service
Alaska Aviation Weather Unit
  NWS logo - Click to go to the NWS homepage
Left Navbar Graphic     21 AKDT = 05 GMT

   
NOAA is celebrating 200 years of science, service, and stewardship. Visit the NOAA 200th celebration Web site to learn more.
USA.gov is the U.S. Government's official Web portal to all Federal, state and local government Web resources and services.
Facebook
NWS on Facebook

Important Change Regarding the AAWU Web Presence

 

Over the last several months, the AAWU has been working to navigate its webpages to a nationally supported server. Security, as well as other needs, have necessitated the change.  In the process, we have made an effort to enhance the functionality of our website, as well as some of our products. As of June 27, 2017, aawu.arh.noaa.gov will be discontinued. The new AAWU web address is weather.gov/aawu. It is now live and will run in-parallel with the old site until it is discontinued. Please send any feedback or questions regarding the new webpages to nws.ar.aawu.webauthors@noaa.gov.  Thank you for your patience during this time of transition.
AAWU Home :: Display TAF Add Bookmark
TAF PADQ 242320Z 2500/2524 30010KT P6SM SKC
      TEMPO 2500/2504 30010G18KT
     FM250700 28005KT P6SM SKC
     FM251900 12008KT P6SM SCT250=
METAR PADQ 242353Z 33009KT 10SM BKN050 19/07 A3014=

METAR PADQ 250053Z 31008KT 10SM BKN050 19/07 A3014=

METAR PADQ 250153Z 28012G17KT 10SM FEW050 21/07 A3013=

METAR PADQ 250253Z VRB06KT 10SM CLR 20/07 A3012=

METAR PADQ 250353Z 30007KT 10SM CLR 20/06 A3012=

METAR PADQ 250453Z 29007KT 10SM CLR 19/07 A3012=


NOAA's National Weather Service
Alaska Aviation Weather Unit
6930 Sand Lake Road
Anchorage, AK 99502-1845
Disclaimer
Credits
Glossary
Privacy Policy
About Us
Career Opportunities
Contact AAWU Internet Services Site last modified: April, 17th 2012